STARLINK-5270, 55299

Orbit data source: Space-Track

STARLINK-5270, 55299 is a payload satellite owned by SpaceX/Seattle (US) in LEO that was launched on Thu, 19 Jan 2023 UTC via an FALCON 9 launch vehicle from the Air Force Western Test Range (AFWTR). Payload-class satellites include a variety of spacecraft equipped with specific instruments for various scientific and technological missions. These include communications satellites like Starlink; space stations such as the ISS; scientific satellites like the Hubble; Earth observation satellites from companies like Planet Labs, Umbra, and HawkEye 360; GPS; miniature CubeSats for education and research; and military/defense satellites.

Loading next visibility...
Identifier
55299, 2023-010AG
Orbit
LEO
Country
Flag of USUS
Related business
Manufacturer
SpaceX/Seattle
Mission
Operational Commercial Communications
Bus & Motor
STARLINK, Unknown motor
Mass
305 kg wet, ~290 kg dry
Launch date (UTC)
2023-01-19 (3 years ago)
Launch vehicle
FALCON 9
Launch site
Air Force Western Test Range (AFWTR)
Object type
Payload
Rocket body
Debris
Shape & HBR
Box + 1 Pan, 10.1 m
Radar Cross Section
13.562 m², Large (>1 m²)

Expand to show TLE details & history
Last TLE update: 2 days ago

TLE from 2 days ago
0 STARLINK-5270
1 55299U 23010AG  26171.30628866  .00000086  00000-0  15046-4 0  9996
2 55299  69.9995 125.5826 0003516 269.4019  90.6737 14.98332962189528
Epoch: 2026-06-20T07:21Z
TLE epoch observation values (Epoch: 2026-06-20T07:21:03.340Z)
Latitude
-0.00003°
Longitude
106.79587°
Altitude
574.5 km
Speed
7.574 km/s
True Right ascension
08h 22m 19s
True Declination
0° 00' 00"
Sunlit
Object was in daylight at epoch
Visualization orbit readout
Latitude
Unknown
Longitude
Unknown
Altitude
Unknown
Speed
Unknown
Apparent Right ascension
Unknown
Apparent Declination
Unknown
Sunlit
N/A
Visualization observer readout
Local Sidereal Time
21:26:34
Azimuth
Unknown
Elevation
Unknown
Doppler factor
Unknown
Orbital elements
Apogee altitude
572.438 km
Perigee altitude
567.552 km
Semi-major axis
6,948.132 km
Eccentricity
0.00035
Inclination
69.9995°
RAAN
125.5826°
Arg. of periapsis
269.4019°
True anomaly
90.71399°
Mean anomaly
90.6737°
Eccentric anomaly
90.69384°
Mean motion
3.7475 °/min
Orbital period
96.06 mins
BSTAR
0.000015046
Loading maneuver chart data...
Computing Atmospheric mass density...
Loading historical data...
Loading historical data...
Loading historical data...
Loading historical data...
Loading historical data...
Loading historical data...
Loading historical data...

Documentation

Showing up to 5 results
|